[[{"header":{"parameterUnit":"m.s-1","parameterCategory":1,"la1":30.2992,"la2":30.254,"lo1":-89.0895,"lo2":-89.0443,"dy":0.0025,"dx":0.0025,"nx":19,"ny":19,"refTime":"2026-03-12T21:00:00:Z","depth":0,"parameterNumber":2,"parameterNumberName":"U-component_of_WINDS"},"data":[0,0,0,-0.5204,-0.5204,-0.5202,-0.5202,-0.5205,-0.5205,0,0,0,0,0,0,0,0,0,0,0,-0.5208,-0.5208,-0.5204,-0.5204,-0.5202,-0.5202,-0.5205,-0.5205,0,0,0,0,0,0,0,0,0,0,0,-0.5208,-0.5208,-0.5209,-0.5204,-0.5202,-0.5202,-0.5205,-0.5205,0,0,0,0,0,0,0,0,0,0,-0.5206,-0.5213,-0.5208,-0.5209,-0.5204,-0.5202,-0.5202,-0.5205,-0.5205,-0.5209,0,-0.5213,0,-0.5209,-0.5206,-0.5206,0,0,0,-0.5202,-0.5213,-0.5209,-0.5209,-0.5204,-0.5202,-0.5202,-0.5205,-0.5205,-0.5209,-0.5213,-0.5213,-0.5209,-0.5206,-0.5206,-0.5235,-0.5236,0,0,-0.5202,-0.521,-0.5209,-0.5209,-0.5209,-0.5202,-0.5202,-0.5205,-0.5209,-0.5213,-0.5213,-0.5209,-0.5206,-0.5206,-0.5235,-0.5235,0,0,0,-0.5204,-0.521,-0.5206,-0.5209,-0.5208,-0.5202,-0.5202,-0.5209,-0.5207,-0.5213,-0.5209,-0.5206,-0.5206,-0.5235,-0.5235,-0.5255,0,0,0,-0.5204,-0.5211,-0.5206,-0.5211,-0.5208,-0.5209,-0.5207,-0.5207,-0.5207,-0.5209,-0.5206,-0.5206,-0.5235,-0.5235,-0.5254,-0.5263,0,0,0,-0.5207,-0.5211,-0.5212,-0.5211,-0.521,-0.5208,-0.5206,-0.5207,-0.5205,-0.5206,-0.5206,-0.5234,-0.5235,-0.5253,-0.5261,-0.5273,0,0,0,-0.5213,-0.523,-0.5213,-0.523,-0.521,-0.522,-0.5206,-0.5213,-0.5216,-0.5206,-0.5235,-0.5235,-0.5252,-0.526,-0.5272,-0.5285,-0.5291,0,0,-0.5238,-0.5233,-0.5242,-0.5227,-0.5242,-0.522,-0.5238,-0.5233,-0.5227,-0.5233,-0.5234,-0.5254,-0.5261,-0.5273,-0.5321,-0.5326,0,0,0,-0.5253,-0.526,-0.5262,-0.5265,-0.5262,-0.526,-0.5252,-0.525,-0.5255,-0.5231,-0.5261,-0.5265,-0.5272,-0.5278,-0.5282,-0.5287,-0.5238,-0.5238,-0.5238,-0.53,-0.529,-0.5305,-0.5295,-0.5298,-0.529,-0.5291,-0.5288,-0.5277,-0.5285,-0.5286,-0.5316,-0.5324,-0.5327,-0.5332,-0.5292,-0.5292,-0.5292,-0.5292,-0.5336,-0.5345,-0.533,-0.534,-0.5329,-0.5337,-0.533,-0.5322,-0.5329,-0.5314,-0.532,-0.5305,-0.5332,-0.5337,-0.5294,-0.5293,-0.5293,-0.5293,-0.5293,-0.5367,-0.5369,-0.5366,-0.5369,-0.5373,-0.5362,-0.5369,-0.536,-0.5351,-0.5356,-0.5357,-0.5357,-0.5356,-0.5357,-0.5357,-0.5357,-0.5357,-0.5357,-0.5358,-0.5399,-0.5395,-0.5402,-0.54,-0.5401,-0.54,-0.5392,-0.5392,-0.5391,-0.5383,-0.5383,-0.5372,-0.5336,-0.5328,-0.5359,-0.5359,-0.5359,-0.5358,-0.5358,-0.5441,-0.543,-0.544,-0.5441,-0.5437,-0.5442,-0.5429,-0.5431,-0.543,-0.5434,-0.5422,-0.5397,-0.5391,-0.5388,-0.538,-0.5424,-0.5424,-0.5424,-0.5424,-0.5467,-0.5463,-0.5471,-0.5473,-0.5473,-0.5463,-0.5476,-0.5469,-0.5461,-0.546,-0.5452,-0.5442,-0.5439,-0.5435,-0.543,-0.5424,-0.5477,-0.5477,-0.5477,-0.5492,-0.5488,-0.55,-0.5491,-0.5488,-0.5486,-0.5497,-0.5501,-0.5489,-0.5479,-0.5459,-0.5457,-0.544,-0.5435,-0.5425,-0.5419,-0.5406,0,0]},{"header":{"parameterUnit":"m.s-1","parameterCategory":1,"la1":30.2992,"la2":30.254,"lo1":-89.0895,"lo2":-89.0443,"dy":0.0025,"dx":0.0025,"nx":19,"ny":19,"refTime":"2026-03-12T21:00:00:Z","depth":0,"parameterNumber":3,"parameterNumberName":"V-component_of_WINDS"},"data":[0,0,0,3.1768,3.1769,3.1834,3.1835,3.1918,3.1919,0,0,0,0,0,0,0,0,0,0,0,3.175,3.1751,3.1767,3.1769,3.1834,3.1835,3.1918,3.1919,0,0,0,0,0,0,0,0,0,0,0,3.175,3.1751,3.1752,3.1769,3.1834,3.1835,3.1918,3.1868,0,0,0,0,0,0,0,0,0,0,3.1804,3.1791,3.1751,3.1752,3.177,3.1834,3.1835,3.1866,3.1871,3.1889,0,3.1908,0,3.1915,3.1925,3.1925,0,0,0,3.1767,3.1787,3.1803,3.1752,3.177,3.1834,3.1804,3.1869,3.1875,3.1897,3.1909,3.1912,3.1916,3.1925,3.1926,3.2041,3.2042,0,0,3.1763,3.1763,3.1798,3.1807,3.1799,3.1802,3.1806,3.1872,3.1885,3.1909,3.1914,3.1918,3.1926,3.1926,3.2041,3.2041,0,0,0,3.1754,3.176,3.1775,3.1803,3.1815,3.1804,3.1809,3.1882,3.1887,3.1915,3.1919,3.1926,3.1927,3.204,3.2041,3.2071,0,0,0,3.1752,3.1755,3.1773,3.1774,3.1814,3.185,3.1817,3.1882,3.189,3.1918,3.1926,3.1928,3.2039,3.2041,3.2069,3.2085,0,0,0,3.1745,3.1754,3.1765,3.1773,3.1802,3.1849,3.1858,3.1884,3.1892,3.1925,3.1928,3.2039,3.204,3.2067,3.2081,3.2113,0,0,0,3.1737,3.1791,3.1765,3.1827,3.1801,3.1869,3.1857,3.1907,3.1939,3.1927,3.2039,3.2041,3.2066,3.2079,3.2111,3.2138,3.2151,0,0,3.1805,3.18,3.1836,3.1814,3.1886,3.1859,3.1934,3.1963,3.1966,3.2016,3.2018,3.207,3.2081,3.2113,3.2223,3.2233,0,0,0,3.1857,3.1882,3.1902,3.1933,3.1957,3.1978,3.1996,3.2007,3.2049,3.1993,3.2091,3.2098,3.2117,3.2129,3.2138,3.2152,3.2048,3.2048,3.2047,3.195,3.1952,3.2011,3.202,3.2051,3.2068,3.2092,3.2109,3.2102,3.2125,3.2138,3.2205,3.2221,3.2227,3.2242,3.2155,3.2156,3.2156,3.2156,3.2047,3.2082,3.2072,3.2125,3.2126,3.217,3.2189,3.2182,3.2222,3.2196,3.2212,3.2181,3.2237,3.2251,3.2158,3.2158,3.2157,3.2157,3.2157,3.2106,3.2123,3.2136,3.218,3.2213,3.2221,3.2259,3.2259,3.2259,3.2276,3.2288,3.2288,3.2285,3.2282,3.2283,3.2283,3.2283,3.2283,3.2283,3.2161,3.2175,3.2208,3.2238,3.2257,3.2282,3.23,3.2318,3.2338,3.2334,3.2334,3.2323,3.2244,3.2222,3.2287,3.2286,3.2286,3.2285,3.2285,3.2253,3.2232,3.2283,3.2303,3.2337,3.2369,3.2369,3.2406,3.2421,3.2439,3.2425,3.2368,3.2361,3.2354,3.2336,3.2426,3.2426,3.2426,3.2426,3.2301,3.2298,3.235,3.238,3.241,3.2415,3.247,3.2484,3.2495,3.2504,3.2492,3.2469,3.2462,3.2459,3.245,3.2433,3.2546,3.2546,3.2546,3.2356,3.2357,3.2404,3.2416,3.2443,3.2465,3.2516,3.2549,3.2558,3.2551,3.251,3.2505,3.2468,3.2457,3.2446,3.2432,3.2401,0,0]}]]